Location: Haliburton Scout Reserve
(45.0900°N, 78.3200°W)
Time: 01:14:36
(UTC-04:00)

DIWATA 2B (PO-101) - Pass Details

Date: 20 May 2022
Orbit: 585 x 597 km, 98.0° (Epoch: 27 June)

Event Time Altitude Azimuth Distance (km) Brightness Sun altitude
Exits shadow 03:01:43 46° 167° (SSE) 787 ? -20.1°
Maximum altitude 03:02:54 89° 249° (WSW) 593 ? -20.0°
Drops below altitude 10° 03:07:04 10° 347° (NNW) 1,922 ? -19.7°
Sets 03:09:15 0° 347° (NNW) 2,829 ? -19.5°
